Regional Weather Roundup
Issued by NWS

Home | Current Version | Previous Version | Graphics & Text | Print | Product List | Glossary On
Versions: 1 2 3 4 5 6 7 8 9 10 11 12 13 14 15 16 17 18 19 20 21 22 23 24 25 26 27 28 29 30 31 32 33 34 35 36 37 38 39 40 41 42 43 44 45 46 47 48 49 50
256
ASUS43 KTOP 290359
RWRKS

WEATHER ROUNDUP FOR KANSAS
NATIONAL WEATHER SERVICE GOODLAND KS
1100 PM CDT WED JUN 28 2017

NOTE:  "FAIR" INDICATES FEW OR NO CLOUDS BELOW 12,000 FEET WITH NO
SIGNIFICANT WEATHER AND/OR OBSTRUCTIONS TO VISIBILITY.

KSZ001>006-013>018-027>032-041>047-290500-
NORTHWEST KANSAS

CITY           SKY/WX    TMP DP  RH WIND       PRES   REMARKS
GOODLAND       MOCLDY    72  59  63 E3        29.81R
HAYS           CLEAR     81  64  56 S13       29.70R
HILL CITY      PTCLDY    79  60  52 NE10      29.72R
RUSSELL        CLEAR     83  62  49 S17       29.69R
$$

KSZ061>065-074>080-084>089-290500-
SOUTHWEST KANSAS

CITY           SKY/WX    TMP DP  RH WIND       PRES   REMARKS
DODGE CITY     CLEAR     82  63  52 S21G30    29.73R
ELKHART          N/A     77  53  43 SE15        N/A
GARDEN CITY    CLEAR     80  61  52 S8        29.72R
GREAT BEND     CLEAR     84  64  50 S22G30    29.71R
LIBERAL        CLEAR     84  59  42 S22G28    29.72S
$$

KSZ066>073-081>083-090>101-290500-
SOUTHEAST KANSAS

CITY           SKY/WX    TMP DP  RH WIND       PRES   REMARKS
CHANUTE        CLEAR     79  68  69 S13       29.82R
COFFEYVILLE    HAZE      79  68  69 S9        29.82S VSB 3/4
HUTCHINSON     CLEAR     84  63  49 S23       29.73R
MEDICINE LODGE   N/A     82  64  54 S14G25    29.75R
NEWTON         CLEAR     81  66  60 S20       29.76S
PARSONS        CLEAR     79  67  66 S8        29.83S
WICHITA INTL   PTCLDY    81  67  62 S15       29.76R
WICHITA JABRA  CLEAR     81  65  58 S17G26    29.77R
WINFIELD       CLEAR     79  67  66 S14       29.81R
$$

KSZ007>012-019>026-033>040-048>060-102>105-290500-
NORTHEAST KANSAS

CITY           SKY/WX    TMP DP  RH WIND       PRES   REMARKS
CONCORDIA      TSTM      70  67  90 SW26G39   29.75R FOG
EMPORIA        CLEAR     79  67  66 S18       29.76S
LAWRENCE       MOCLDY    81  70  69 S18G29    29.75R
MANHATTAN      PTCLDY    84  67  56 S15G29    29.70R
OLATHE IND     CLEAR     79  68  69 S15G26    29.79R
OLATHE EXE     CLEAR     78  69  73 S12G22    29.79R
SALINA         CLEAR     87  62  43 S16G25    29.69R
TOPEKA BILLARD CLEAR     83  70  64 S14       29.73R
TOPEKA FORBES  CLEAR     83  69  62 S15       29.74R
$$




USA.gov is the U.S. government's official web portal to all federal, state and local government web resources and services.